Weather History for Meridian NAS, MS

Change the Weather History Date:

Sunday, May 26, 2013

  Actual Average Record
Temperature  
Mean Temperature 70 °F -  
Max Temperature 86 °F 81 °F 93 °F (2012)
Min Temperature 55 °F 62 °F 53 °F (2005)
Cooling Degree Days 4    
Growing Degree Days 20 (Base 50)    
Moisture  
Dew Point 56 °F    
Average Humidity 64    
Maximum Humidity 93    
Minimum Humidity 35    
Precipitation  
Precipitation 0.00 in - - ()
Sea Level Pressure  
Sea Level Pressure 30.20 in    
Wind  
Wind Speed 1 mph (ESE)    
Max Wind Speed 6 mph    
Max Gust Speed -    
Visibility 10 miles    
Events      
Averages and records for this station are not official NWS values.
T = Trace of Precipitation, MM = Missing Value Source: NWS Daily Summary

Daily Weather History Graph

Daily Weather History Graph

Search for Another Location

Airport:

Trip Planner

Search our weather history database for the weather conditions in past years. The results will help you decide how hot, cold, wet, or windy it might be!

Date:

Astronomy

May. 26, 2013 Rise Set
Actual Time 5:49 AM CDT 7:53 PM CDT
Civil Twilight 5:21 AM CDT 8:21 PM CDT
Nautical Twilight 4:48 AM CDT 8:54 PM CDT
Astronomical Twilight 4:11 AM CDT 9:31 PM CDT
Moon 9:42 PM CDT (5/26) 7:17 AM CDT (5/26)
Length of Visible Light 14h 59m
Length of Day
14h 03m
Waning Gibbous, 96% of the Moon is Illuminated
May 26
Waning Gibbous
May 31
Last Quarter
Jun 8
New
Jun 16
First Quarter
Jun 23
Full

Hourly Weather History & Observations

Time (CDT) Temp. Heat Index Dew Point Humidity Pressure Visibility Wind Dir Wind Speed Gust Speed Precip Events Conditions
12:56 AM 57.9 °F - 55.0 °F 90% 30.20 in 10.0 mi Calm Calm - N/A   Clear
1:56 AM 55.9 °F - 54.0 °F 93% 30.19 in 10.0 mi Calm Calm - N/A   Clear
2:56 AM 57.0 °F - 55.0 °F 93% 30.18 in 10.0 mi Calm Calm - N/A   Clear
3:56 AM 57.9 °F - 55.0 °F 90% 30.20 in 10.0 mi Calm Calm - N/A   Clear
4:56 AM 57.0 °F - 54.0 °F 89% 30.21 in 10.0 mi Calm Calm - N/A   Clear
5:56 AM 55.9 °F - 54.0 °F 93% 30.23 in 10.0 mi Calm Calm - N/A   Clear
6:56 AM 57.9 °F - 54.0 °F 87% 30.25 in 10.0 mi Calm Calm - N/A   Clear
7:56 AM 64.9 °F - 57.0 °F 75% 30.26 in 10.0 mi Calm Calm - N/A   Clear
8:56 AM 72.0 °F - 55.0 °F 55% 30.27 in 10.0 mi Calm Calm - N/A   Clear
9:56 AM 75.9 °F - 55.0 °F 48% 30.26 in 10.0 mi SE 4.6 mph - N/A   Clear
10:56 AM 79.0 °F - 57.0 °F 47% 30.25 in 10.0 mi Calm Calm - N/A   Clear
11:56 AM 82.0 °F 81.3 °F 54.0 °F 38% 30.24 in 10.0 mi Variable 3.5 mph - N/A   Clear
12:56 PM 84.0 °F 82.6 °F 54.0 °F 35% 30.22 in 10.0 mi East 4.6 mph - N/A   Clear
1:56 PM 84.0 °F 82.6 °F 54.0 °F 35% 30.21 in 10.0 mi Calm Calm - N/A   Clear
2:56 PM 82.9 °F 81.8 °F 53.1 °F 36% 30.20 in 10.0 mi Calm Calm - N/A   Clear
3:56 PM 82.9 °F 81.8 °F 53.1 °F 36% 30.19 in 10.0 mi Calm Calm - N/A   Mostly Cloudy
4:56 PM 84.0 °F 82.6 °F 54.0 °F 35% 30.18 in 10.0 mi Calm Calm - N/A   Mostly Cloudy
5:56 PM 84.0 °F 82.6 °F 54.0 °F 35% 30.16 in 10.0 mi East 5.8 mph - N/A   Mostly Cloudy
6:56 PM 77.0 °F - 59.0 °F 54% 30.16 in 10.0 mi Calm Calm - N/A   Mostly Cloudy
7:56 PM 73.0 °F - 59.0 °F 61% 30.16 in 10.0 mi Calm Calm - N/A   Mostly Cloudy
8:56 PM 70.0 °F - 57.9 °F 65% 30.15 in 10.0 mi Calm Calm - N/A   Mostly Cloudy
9:56 PM 66.9 °F - 61.0 °F 81% 30.17 in 10.0 mi Calm Calm - N/A   Clear
10:56 PM 66.9 °F - 61.0 °F 81% 30.17 in 10.0 mi Calm Calm - N/A   Clear
11:56 PM 66.0 °F - 63.0 °F 90% 30.17 in 10.0 mi SSE 3.5 mph - N/A   Clear